Find Starlink 2590

NORAD ID: 48397 Int'l Des: 2021-038 Owner: SPXS Country: US Constellation: starlink operational
LEOCIRCULAR

Live Position

Loading 3D Globe...

About Starlink 2590

Description loading...

Upcoming Passes

Passes for default location (London). Set your location on the main map for personalized predictions.

Altitude History

Loading altitude history...

Two-Line Element Set

1 48397U 21038AW 26112.06449559 .00009199 00000-0 30756-3 0 9991
2 48397 53.1593 131.0508 0001125 77.1730 282.9397 15.31728376275301
Epoch: Apr 22, 2026 • Age: 16 hours

Current Status

Altitude 475.6 km
Velocity 7.63 km/s
Sub-Earth Point 49.47°N, 131.3°E
Launch Date May 4, 2021
Age 4.9 years
Type internet

Technical Details

Classification Payload
Mass 260.00 kg
Dry Mass 248.00 kg
Total Mass 260.00 kg
Length 0.20 m
Diameter 2.80 m
Span 9.00 m
Shape Box + pan
Manufacturer SPXS
Bus Type Starlink
Phase Status In Orbit
Owner/State SPXS/US

Most Searched